[[{"header":{"parameterUnit":"m.s-1","parameterCategory":1,"la1":30.2991,"la2":30.254,"lo1":-89.0895,"lo2":-89.0444,"dy":0.0017,"dx":0.0017,"nx":28,"ny":28,"refTime":"2024-04-12T09:00:00:Z","depth":0,"parameterNumber":2,"parameterNumberName":"U-component_of_WINDS"},"data":[0,0,0,0,0,0,0,0,0,0,0,0,0,0,0,0,0,0,0,0,0,0,0,0,0,0,0,0,0,0,0,0,0,0,0,0,0,0,0,0,0,0,0,0,0,0,0,0,0,0,0,0,0,0,0,0,0,0,-0.3175,-0.3174,0,-0.3112,-0.3111,-0.311,-0.3053,-0.3052,-0.3051,-0.305,-0.2987,-0.2986,-0.2985,0,0,0,0,0,0,0,0,0,0,0,0,0,-0.3248,-0.3247,-0.3175,-0.3174,-0.3173,-0.3112,-0.3111,-0.311,-0.3053,-0.3052,-0.3051,-0.305,-0.2987,-0.2986,-0.2985,0,0,0,0,0,0,0,0,0,0,0,0,0,-0.3204,-0.3247,-0.3175,-0.3137,-0.3133,-0.3112,-0.3111,-0.311,-0.3053,-0.3052,-0.3051,-0.305,-0.2987,-0.2986,-0.2984,-0.2996,0,0,-0.298,-0.2979,0,0,0,0,0,0,0,0,-0.3206,-0.3201,-0.3143,-0.314,-0.3135,-0.3089,-0.3113,-0.3072,-0.3053,-0.3083,-0.305,-0.3049,-0.3022,-0.3017,-0.3008,-0.2993,-0.299,-0.2979,-0.2978,-0.2978,-0.2977,0,0,0,0,0,0,0,-0.321,-0.3204,-0.315,-0.3143,-0.3138,-0.3124,-0.3117,-0.3105,-0.3059,-0.3081,-0.3076,-0.307,-0.3019,-0.3009,-0.3006,-0.2989,-0.2979,-0.2978,-0.2977,-0.2976,-0.2983,-0.2984,0,0,0,0,0,0,-0.3218,-0.3207,-0.3152,-0.3148,-0.3169,-0.3124,-0.3115,-0.3105,-0.3059,-0.3051,-0.3071,-0.3067,-0.3012,-0.3008,-0.3003,-0.3015,-0.2978,-0.2976,-0.2975,-0.2982,-0.2983,-0.2984,0,0,0,0,0,0,-0.322,-0.3214,-0.3154,-0.3176,-0.3167,-0.3124,-0.3112,-0.3104,-0.3094,-0.3051,-0.3043,-0.3069,-0.3011,-0.3005,-0.2999,-0.3012,-0.2976,-0.2974,-0.298,-0.2982,-0.2984,-0.3038,0,0,0,0,0,0,-0.3222,-0.3215,-0.3218,-0.3177,-0.3167,-0.315,-0.3113,-0.3104,-0.3092,-0.3086,-0.3048,-0.304,-0.301,-0.3001,-0.2997,-0.3009,-0.2973,-0.2979,-0.2981,-0.2983,-0.3035,-0.3041,-0.3047,0,0,0,0,0,-0.3225,-0.3235,-0.3218,-0.3212,-0.3169,-0.3151,-0.3145,-0.311,-0.3093,-0.3096,-0.3069,-0.3041,-0.3011,-0.3001,-0.2996,-0.3008,-0.2978,-0.2981,-0.2983,-0.3032,-0.304,-0.3047,0,0,0,0,0,0,-0.3279,-0.3229,-0.321,-0.3207,-0.3184,-0.3141,-0.3144,-0.3119,-0.3101,-0.3097,-0.3055,-0.3046,-0.3045,-0.3025,-0.3015,-0.3017,-0.2991,-0.2993,-0.303,-0.3037,-0.3043,-0.3048,-0.2972,0,0,0,0,0,-0.3291,-0.3279,-0.3236,-0.3238,-0.3227,-0.3188,-0.3179,-0.3154,-0.3128,-0.3118,-0.309,-0.3067,-0.3053,-0.3044,-0.3028,-0.3032,-0.3023,-0.3038,-0.3044,-0.3049,-0.3051,-0.3054,-0.306,-0.2993,-0.2992,-0.2992,0,0,-0.3315,-0.3286,-0.3281,-0.3248,-0.3227,-0.3218,-0.318,-0.3171,-0.3163,-0.3117,-0.3109,-0.3088,-0.3059,-0.3059,-0.3057,-0.3042,-0.3068,-0.3052,-0.3056,-0.3055,-0.3057,-0.3063,-0.3069,-0.2994,-0.2994,-0.2994,0,0,-0.3353,-0.333,-0.3329,-0.3309,-0.3278,-0.3253,-0.3253,-0.3214,-0.3199,-0.319,-0.3156,-0.3147,-0.3122,-0.3104,-0.3091,-0.3126,-0.31,-0.3122,-0.3153,-0.3156,-0.3162,-0.3166,-0.318,-0.3185,-0.3124,-0.3124,-0.3124,0,-0.3387,-0.3369,-0.3332,-0.3325,-0.3313,-0.3271,-0.3271,-0.3254,-0.3219,-0.3212,-0.3197,-0.3166,-0.3144,-0.3139,-0.3148,-0.3138,-0.3138,-0.3126,-0.3164,-0.3168,-0.3172,-0.3184,-0.3189,-0.3127,-0.3126,-0.3126,-0.3126,0,-0.3413,-0.3402,-0.3406,-0.3374,-0.3362,-0.3359,-0.3322,-0.3314,-0.3291,-0.3268,-0.3261,-0.3233,-0.3211,-0.3208,-0.3185,-0.3201,-0.3193,-0.3172,-0.3144,-0.3182,-0.3193,-0.3197,-0.3131,-0.313,-0.3129,-0.3128,0,0,-0.3483,-0.3432,-0.3434,-0.342,-0.3384,-0.3375,-0.3371,-0.335,-0.3345,-0.3323,-0.332,-0.3301,-0.3281,-0.3267,-0.3242,-0.3245,-0.3276,-0.3223,-0.3221,-0.3235,-0.3294,-0.3311,-0.3317,-0.3259,-0.326,-0.326,-0.3297,0,-0.3516,-0.3505,-0.3472,-0.3472,-0.3463,-0.3424,-0.342,-0.3399,-0.3377,-0.3367,-0.3343,-0.3331,-0.3305,-0.3296,-0.3297,-0.3272,-0.3288,-0.3269,-0.3256,-0.3256,-0.3265,-0.3322,-0.334,-0.3375,-0.33,-0.3301,-0.3302,0,-0.3553,-0.3534,-0.3533,-0.3499,-0.3494,-0.3491,-0.3471,-0.3461,-0.3436,-0.3421,-0.3406,-0.3379,-0.3374,-0.3349,-0.3342,-0.333,-0.3323,-0.3311,-0.3311,-0.3309,-0.3282,-0.3323,-0.3386,-0.3392,-0.3308,-0.3307,-0.3307,0,-0.3605,-0.358,-0.3576,-0.3566,-0.3526,-0.3525,-0.3509,-0.3483,-0.3473,-0.3456,-0.3449,-0.3432,-0.3422,-0.3409,-0.3379,-0.3363,-0.3376,-0.3348,-0.3364,-0.3365,-0.3369,-0.3369,-0.3432,-0.3363,-0.3363,-0.3363,-0.3363,0,-0.3646,-0.3647,-0.36,-0.3598,-0.3599,-0.3562,-0.3564,-0.3544,-0.3522,-0.3516,-0.3482,-0.3477,-0.3437,-0.3428,-0.3404,-0.3403,-0.3399,-0.3387,-0.3381,-0.3391,-0.3392,-0.3386,-0.3383,-0.3365,-0.3364,-0.3364,-0.3364,0,-0.3705,-0.3673,-0.3667,-0.363,-0.3621,-0.3623,-0.3592,-0.359,-0.3567,-0.356,-0.3557,-0.3521,-0.3509,-0.3477,-0.3457,-0.3441,-0.3448,-0.3435,-0.3456,-0.3452,-0.3471,-0.347,-0.3532,-0.354,-0.3466,-0.3466,-0.3467,0,-0.3733,-0.3733,-0.3697,-0.3691,-0.3676,-0.3666,-0.3656,-0.362,-0.3612,-0.3585,-0.3586,-0.3572,-0.3559,-0.3542,-0.3515,-0.35,-0.3488,-0.3511,-0.3485,-0.3496,-0.349,-0.3491,-0.3491,-0.3517,-0.3518,-0.3518,-0.3519,0,-0.3788,-0.3772,-0.3759,-0.3742,-0.3731,-0.3715,-0.3698,-0.3695,-0.3655,-0.3648,-0.3635,-0.3625,-0.3606,-0.3593,-0.3574,-0.3558,-0.3533,-0.3528,-0.3531,-0.3541,-0.3554,-0.3548,-0.3472,-0.3526,-0.3525,-0.3525,-0.3525,-0.3524,-0.3833,-0.3832,-0.3807,-0.3794,-0.3777,-0.3762,-0.3758,-0.3735,-0.3724,-0.3705,-0.3685,-0.3676,-0.3653,-0.3626,-0.3612,-0.3605,-0.3591,-0.3595,-0.3597,-0.3598,-0.3604,-0.3554,-0.3601,-0.3601,-0.3601,-0.36,-0.36,0,-0.3887,-0.3869,-0.3858,-0.3834,-0.3825,-0.3802,-0.3782,-0.3776,-0.3768,-0.3749,-0.3737,-0.3724,-0.3712,-0.3684,-0.3669,-0.3669,-0.3658,-0.3667,-0.3667,-0.3664,-0.3616,-0.3615,-0.3677,-0.3677,-0.3677,-0.3677,-0.3677,-0.3677,-0.3914,-0.3912,-0.3894,-0.3884,-0.3866,-0.3856,-0.3847,-0.3833,-0.3818,-0.3805,-0.3795,-0.3777,-0.3755,-0.3739,-0.3727,-0.3719,-0.3716,-0.373,-0.3718,-0.3674,-0.3667,-0.366,-0.3659,-0.3729,-0.3729,-0.3767,-0.3767,-0.3768]},{"header":{"parameterUnit":"m.s-1","parameterCategory":1,"la1":30.2991,"la2":30.254,"lo1":-89.0895,"lo2":-89.0444,"dy":0.0017,"dx":0.0017,"nx":28,"ny":28,"refTime":"2024-04-12T09:00:00:Z","depth":0,"parameterNumber":3,"parameterNumberName":"V-component_of_WINDS"},"data":[0,0,0,0,0,0,0,0,0,0,0,0,0,0,0,0,0,0,0,0,0,0,0,0,0,0,0,0,0,0,0,0,0,0,0,0,0,0,0,0,0,0,0,0,0,0,0,0,0,0,0,0,0,0,0,0,0,0,4.1775,4.1775,0,4.1784,4.1784,4.1784,4.1805,4.1805,4.1805,4.1806,4.1812,4.1812,4.1812,0,0,0,0,0,0,0,0,0,0,0,0,0,4.1771,4.1771,4.1775,4.1775,4.1775,4.1784,4.1784,4.1784,4.1804,4.1805,4.1805,4.1806,4.1812,4.1812,4.1812,0,0,0,0,0,0,0,0,0,0,0,0,0,4.1776,4.1771,4.1775,4.1786,4.1787,4.1784,4.1784,4.1784,4.1804,4.1805,4.1806,4.1806,4.1812,4.1812,4.1812,4.1797,0,0,4.1811,4.1811,0,0,0,0,0,0,0,0,4.1775,4.1776,4.1784,4.1785,4.1786,4.1794,4.1786,4.1789,4.1804,4.1798,4.1806,4.1806,4.1805,4.1806,4.1806,4.1798,4.1798,4.1811,4.1811,4.1811,4.181,0,0,0,0,0,0,0,4.1775,4.1775,4.1778,4.1784,4.1786,4.179,4.1791,4.1786,4.1798,4.1798,4.18,4.1801,4.1806,4.1806,4.1806,4.1798,4.1811,4.1811,4.181,4.181,4.1779,4.1779,0,0,0,0,0,0,4.1773,4.1775,4.1778,4.1779,4.1782,4.1789,4.1791,4.1791,4.1798,4.18,4.18,4.1802,4.1807,4.1807,4.1807,4.1791,4.1811,4.181,4.181,4.178,4.1779,4.1778,0,0,0,0,0,0,4.1773,4.1774,4.1778,4.1777,4.1778,4.1789,4.1789,4.1791,4.1791,4.18,4.1801,4.1799,4.1807,4.1807,4.18,4.1791,4.181,4.181,4.1781,4.178,4.1779,4.1758,0,0,0,0,0,0,4.1773,4.1773,4.1768,4.1777,4.1778,4.1771,4.1788,4.179,4.1791,4.1793,4.1798,4.18,4.1808,4.18,4.18,4.1791,4.181,4.1781,4.178,4.1779,4.176,4.1757,4.1754,0,0,0,0,0,4.1773,4.1761,4.1768,4.1768,4.1772,4.1771,4.1771,4.1781,4.179,4.1785,4.1791,4.18,4.1792,4.1799,4.1799,4.179,4.1782,4.178,4.1779,4.1761,4.1757,4.1754,0,0,0,0,0,0,4.175,4.1763,4.177,4.1761,4.1765,4.1774,4.1768,4.1777,4.1777,4.1779,4.1791,4.1792,4.1783,4.1786,4.1793,4.1777,4.1789,4.1787,4.1775,4.1772,4.1769,4.1768,4.1809,0,0,0,0,0,4.1744,4.1743,4.1754,4.1745,4.1746,4.1757,4.1757,4.1764,4.1768,4.1769,4.1774,4.1777,4.1775,4.1774,4.1773,4.1761,4.1762,4.1754,4.1751,4.1749,4.1747,4.1742,4.1738,4.1774,4.1774,4.1774,0,0,4.1732,4.1739,4.1737,4.174,4.1744,4.1742,4.1758,4.1754,4.1753,4.1768,4.1762,4.1766,4.177,4.176,4.1756,4.1762,4.1738,4.1747,4.1745,4.1745,4.174,4.1736,4.1733,4.1773,4.1773,4.1773,0,0,4.1708,4.1713,4.1706,4.171,4.1716,4.1723,4.1722,4.173,4.1734,4.1728,4.174,4.1738,4.1734,4.1737,4.1737,4.1716,4.1724,4.1715,4.17,4.1694,4.1691,4.1689,4.1681,4.1678,4.1713,4.1713,4.1713,0,4.1691,4.1689,4.1701,4.1698,4.1699,4.1715,4.1708,4.1711,4.1715,4.1716,4.1723,4.172,4.1723,4.1715,4.171,4.171,4.1708,4.1714,4.1691,4.1689,4.1686,4.1679,4.1676,4.1712,4.1712,4.1712,4.1712,0,4.1668,4.1666,4.166,4.1666,4.1667,4.1661,4.1673,4.1672,4.168,4.1686,4.168,4.1685,4.1685,4.1684,4.1691,4.1677,4.168,4.1689,4.1701,4.1682,4.1675,4.1672,4.171,4.1711,4.1711,4.1711,0,0,4.1629,4.1643,4.164,4.1644,4.1652,4.165,4.1646,4.1648,4.1647,4.1649,4.1646,4.1643,4.1652,4.1653,4.166,4.1655,4.1638,4.1664,4.1665,4.1659,4.1622,4.1615,4.1612,4.1644,4.1643,4.1643,4.1622,0,4.1606,4.16,4.1612,4.1603,4.1602,4.1617,4.1613,4.1617,4.1623,4.1622,4.1629,4.1627,4.1638,4.1639,4.1635,4.1641,4.163,4.1642,4.1639,4.1639,4.1638,4.1608,4.1601,4.1581,4.1619,4.1619,4.1618,0,4.1579,4.1582,4.1573,4.1583,4.1583,4.1579,4.1582,4.1582,4.1587,4.1592,4.1593,4.1603,4.1598,4.1611,4.1604,4.1612,4.1612,4.1615,4.1614,4.1614,4.1627,4.1607,4.1575,4.1572,4.1614,4.1615,4.1615,0,4.1551,4.1553,4.1549,4.1551,4.1562,4.1559,4.1563,4.157,4.157,4.1572,4.1573,4.1574,4.1575,4.1575,4.1585,4.1593,4.1577,4.159,4.1581,4.158,4.1576,4.1576,4.1543,4.1576,4.1576,4.1576,4.1577,0,4.1525,4.1519,4.1537,4.1533,4.1527,4.1541,4.1534,4.1539,4.1545,4.1543,4.1556,4.1553,4.1566,4.1565,4.1572,4.1566,4.1566,4.1569,4.1571,4.1568,4.1567,4.1567,4.1569,4.1576,4.1576,4.1576,4.1576,0,4.1493,4.1504,4.15,4.1512,4.1514,4.1509,4.1519,4.1516,4.1524,4.1521,4.1521,4.1532,4.1531,4.1541,4.1542,4.1547,4.1537,4.1541,4.1536,4.1537,4.1527,4.1527,4.1492,4.1488,4.1524,4.1524,4.1523,0,4.1475,4.1471,4.1482,4.1483,4.1487,4.1487,4.1488,4.1501,4.1501,4.1508,4.1504,4.1505,4.1506,4.1504,4.1512,4.1513,4.1517,4.1505,4.1517,4.1514,4.1517,4.1517,4.1516,4.1502,4.1501,4.1501,4.15,0,4.1442,4.1448,4.145,4.1454,4.1455,4.1459,4.1463,4.1462,4.1476,4.1476,4.1477,4.1478,4.1479,4.148,4.1482,4.1486,4.1495,4.1497,4.1495,4.1491,4.1488,4.1489,4.1528,4.1497,4.1498,4.1498,4.1498,4.1498,4.1416,4.1414,4.1422,4.1423,4.1428,4.1432,4.1431,4.1439,4.1439,4.1443,4.145,4.1449,4.1455,4.1459,4.1462,4.1461,4.1467,4.1464,4.1463,4.1462,4.146,4.1488,4.1462,4.1462,4.1462,4.1462,4.1462,0,4.1384,4.1391,4.1392,4.1398,4.14,4.141,4.1415,4.1416,4.1415,4.142,4.1422,4.1422,4.1423,4.1431,4.1432,4.143,4.1434,4.143,4.143,4.1431,4.1455,4.1456,4.1426,4.1426,4.1426,4.1426,4.1426,4.1426,4.1368,4.1364,4.1371,4.137,4.1376,4.1376,4.1379,4.1382,4.1386,4.1387,4.1388,4.1394,4.14,4.1402,4.1403,4.1406,4.1406,4.14,4.1403,4.1425,4.1429,4.1432,4.1434,4.1399,4.1399,4.1379,4.1379,4.1379]}]]